EDT,Max TemperatureF,Mean TemperatureF,Min TemperatureF,Max Dew PointF,MeanDew PointF,Min DewpointF,Max Humidity, Mean Humidity, Min Humidity, Max Sea Level PressureIn, Mean Sea Level PressureIn, Min Sea Level PressureIn, Max VisibilityMiles, Mean VisibilityMiles, Min VisibilityMiles, Max Wind SpeedMPH, Mean Wind SpeedMPH, Max Gust SpeedMPH,PrecipitationIn, CloudCover, Events, WindDirDegrees
2011-10-1,52,46,39,41,38,34,89,70,50,30.22,30.13,29.98,10,8,3,24,13,33,0.08,6,Rain,358
2011-10-2,63,50,36,40,34,27,92,59,25,30.21,30.15,30.07,10,10,10,21,10,28,0.00,1,,337
2011-10-3,66,57,47,47,43,39,86,63,40,30.22,30.15,30.10,10,10,10,20,8,24,0.00,3,,339
2011-10-4,73,56,39,48,43,38,93,62,31,30.30,30.26,30.22,10,10,10,12,3,16,0.00,0,,287
2011-10-5,76,59,41,52,46,38,96,63,29,30.31,30.27,30.24,10,10,5,8,2,10,0.00,0,,80
2011-10-6,80,62,43,55,49,44,100,68,36,30.35,30.31,30.27,10,4,0,8,3,14,0.00,0,Fog,120
2011-10-7,80,64,47,56,51,46,100,71,42,30.41,30.35,30.31,10,7,0,14,5,17,0.00,0,Fog,171
2011-10-8,81,67,52,55,52,48,89,63,36,30.40,30.36,30.32,10,9,5,12,6,15,0.00,0,,187
2011-10-9,82,66,49,58,53,48,93,66,39,30.41,30.36,30.30,10,10,10,8,2,10,0.00,0,,168
2011-10-10,77,62,47,56,52,48,96,69,41,30.32,30.25,30.16,10,9,6,13,4,16,0.00,0,,143
2011-10-11,80,63,45,57,50,44,100,66,32,30.16,30.08,30.01,10,9,6,16,4,21,0.00,0,,144
2011-10-12,70,60,50,58,54,50,100,79,57,30.01,29.87,29.75,10,8,2,21,7,26,T,5,Rain,90
2011-10-13,67,61,54,56,55,52,93,76,58,29.73,29.62,29.39,10,7,1,13,4,20,0.05,6,Rain,175
2011-10-14,59,55,50,56,48,38,93,76,59,29.52,29.39,29.32,10,9,2,28,15,36,0.05,8,Rain,252
2011-10-15,56,51,45,42,38,34,89,68,46,29.79,29.59,29.48,10,10,10,37,19,46,0.19,6,Rain,265
2011-10-16,61,54,46,43,39,32,71,56,40,29.80,29.73,29.63,10,10,10,25,11,31,T,4,Rain,248
2011-10-17,60,52,43,37,34,30,71,54,36,29.78,29.71,29.66,10,10,10,29,15,39,0.00,0,,248
2011-10-18,55,45,35,45,38,33,93,74,54,29.86,29.81,29.76,10,10,8,13,4,25,0.11,2,Rain,301
2011-10-19,50,48,46,46,44,41,93,87,80,29.83,29.64,29.29,10,8,3,30,17,40,1.15,8,Rain,35
2011-10-20,48,46,43,46,43,39,96,90,83,29.67,29.30,29.17,10,5,2,30,16,40,0.47,8,Rain,338
2011-10-21,48,46,43,41,38,35,89,77,65,30.09,29.93,29.70,10,9,2,17,10,24,0.01,8,Rain,285
2011-10-22,59,44,28,40,35,28,92,66,40,30.11,30.08,30.05,10,10,6,14,4,18,0.00,1,,238
2011-10-23,66,49,32,46,39,32,92,66,40,30.06,29.97,29.88,10,10,9,14,5,18,0.02,2,Rain,199
2011-10-24,61,49,36,48,41,31,89,63,36,30.12,29.93,29.79,10,9,4,28,11,38,0.22,4,Rain-Thunderstorm,260
2011-10-25,58,48,38,47,42,35,92,75,57,30.16,30.03,29.80,10,10,9,18,6,20,0.10,6,Rain,119
2011-10-26,52,48,43,47,44,38,100,88,76,29.92,29.85,29.77,10,8,2,16,9,20,T,8,Rain,15
2011-10-27,48,39,29,38,36,32,96,81,65,30.15,29.99,29.90,10,10,6,16,5,22,T,6,Rain,353
2011-10-28,52,39,25,36,30,25,100,73,46,30.23,30.17,30.11,10,6,0,9,2,13,0.00,2,Fog,193
2011-10-29,49,39,28,37,34,28,100,81,61,30.14,30.08,30.04,10,8,1,17,3,23,0.06,4,Fog-Rain,201
2011-10-30,51,38,25,37,28,23,100,71,41,30.23,30.15,30.11,10,4,0,16,5,21,0.01,1,Fog-Rain,185
2011-10-31,54,46,37,39,37,35,89,70,50,30.17,30.08,30.04,10,10,7,16,8,21,T,6,Rain,178